Regional Weather Roundup
Issued by NWS

Home | Current Version | Previous Version | Text Only | Print | Product List | Glossary On
Versions: 1 2 3 4 5 6 7 8 9 10 11 12 13 14 15 16 17 18 19 20 21 22 23 24 25 26 27 28 29 30 31 32 33 34 35 36 37 38 39 40 41 42 43 44 45 46 47 48 49 50
000
ASUS43 KMPX 051201
RWRMN
WEATHER ROUNDUP FOR MINNESOTA
NATIONAL WEATHER SERVICE TWIN CITIES/CHANHASSEN MN
700 AM CDT THU MAY 05 2016


NOTE: "FAIR" INDICATES FEW OR NO CLOUDS BELOW 12,000 FEET WITH NO
SIGNIFICANT WEATHER AND/OR OBSTRUCTIONS TO VISIBILITY. N/A MEANS
CURRENT SKY AND/OR WEATHER CONDITIONS ARE NOT AVAILABLE.

MNZ060>063-068>070-051300-
   Twin Cities Metro

CITY           SKY/WX    TMP DP  RH WIND       PRES   REMARKS
TWIN CITIES    CLOUDY    50  26  39 CALM      30.06R
6HR MIN TEMP:  45; 6HR MAX TEMP:  51;

ST PAUL        CLOUDY    46  36  68 SE5       30.08R
CRYSTAL        CLOUDY    45  31  58 CALM      30.05R
EDEN PRAIRIE   CLOUDY    46  30  53 CALM      30.04R
6HR MIN TEMP:  45; 6HR MAX TEMP:  49;

SOUTH ST PAUL  CLOUDY    46  37  70 CALM      30.07R
LAKE ELMO      CLOUDY    43  39  87 CALM      30.07R
$$
MNZ001>005-007-008-013>017-022>024-027-028-051300-
   Northwest Minnesota

CITY           SKY/WX    TMP DP  RH WIND       PRES   REMARKS
BEMIDJI        MOCLDY    51  26  36 S8        29.97S
HALLOCK        CLEAR     52  32  46 S13       29.80S
ROSEAU         CLEAR     54  34  47 S17       29.83F
WARROAD        CLEAR     54  34  47 S12G17    29.85S
THIEF RVR FALL CLEAR     54  30  40 S6        29.89R
CROOKSTON      CLEAR     55  34  44 S15       29.88R
FOSSTON        PTCLDY    54  28  37 SE10      29.93R
DETROIT LAKES  CLEAR     48  37  66 S7        29.97S
MOORHEAD       CLEAR     50  34  53 S14       29.93S
PARK RAPIDS    CLOUDY    47  27  45 SE8       29.99R
MAHNOMEN       FAIR      49  33  52 S9        29.93S
$$
MNZ006-009>011-018-025>026-051300-
   North Central Minnesota

CITY           SKY/WX    TMP DP  RH WIND       PRES   REMARKS
BAUDETTE       CLOUDY    45  34  65 S6        29.90F
FLAG ISLAND    CLEAR     46  37  71 S17       29.83F
INTL FALLS     CLOUDY    48  28  46 S9        29.87F
6HR MIN TEMP:  41; 6HR MAX TEMP:  48; 6HR PCP:  0.01;

WASKISH        CLOUDY    48  36  61 SE5       29.94R
BIG FORK       CLOUDY    43  30  61 W5        29.99R
LONGVILLE      PTCLDY    39  36  87 CALM      30.00R
GRAND RAPIDS   SUNNY     45  28  53 S7        30.01R
CRANE LAKE     PTSUNNY   39  37  93 S7        29.97F
ORR            CLOUDY    43  28  56 CALM      29.96R
COOK           CLOUDY    43  37  81 CALM      29.99R
WALKER         PTSUNNY   48  26  43 S6        29.98S
$$
MNZ012-019>021-037-051300-
   Northeast Minnesota

CITY           SKY/WX    TMP DP  RH WIND       PRES   REMARKS
DULUTH         LGT RAIN  43  35  73 SW10      30.00S
6HR MIN TEMP:  36; 6HR MAX TEMP:  43; 6HR PCP:  0.07;

ELY            LGT RAIN  43  34  70 CALM      29.99R
HIBBING        CLOUDY    39  32  76 CALM      29.98S
EVELETH        LGT RAIN  39  36  87 SW3       30.01R
DULUTH HARBOR  CLOUDY    39  36  87 SW7       30.03S
TWO HARBORS    CLOUDY    37  34  87 CALM      29.99S
SILVER BAY     CLOUDY    34  30  86 CALM      29.98F
GRAND MARAIS     N/A     39  33  79 W8        30.00R
G MARAIS ARPRT CLOUDY    37  27  65 SW3       29.98S
$$
MNZ029>031-032-039>041-046>048-054>057-064-051300-
   West Central Minnesota

CITY           SKY/WX    TMP DP  RH WIND       PRES   REMARKS
FERGUS FALLS   PTCLDY    52  36  54 SE8       29.96S
WHEATON        CLEAR     54  36  50 S9        29.98F
MORRIS         CLEAR     43  34  70 SE6       29.99R
ALEXANDRIA     PTCLDY    48  33  56 S3        30.01R
ELBOW LAKE     FAIR      48  33  55 E9        30.00R
WADENA         PTCLDY    46  30  53 CALM      30.00R
GLENWOOD       CLEAR     46  30  53 S5        30.01S
APPLETON       CLEAR     43  36  75 CALM      30.00R
BENSON         CLEAR     37  32  81 CALM      30.01R
ORTONVILLE     CLEAR     46  36  66 S6        29.98S
MADISON        CLEAR     45  34  65 S5        30.00S
WILLMAR        FAIR      41  36  81 CALM      30.04R
$$
MNZ033>034-036-042>043-049>051-058-059-051300-
   Central Minnesota

CITY           SKY/WX    TMP DP  RH WIND       PRES   REMARKS
ST CLOUD       CLEAR     40  34  79 S5        30.04R
6HR MIN TEMP:  36; 6HR MAX TEMP:  41;

SAUK CENTRE    FAIR      36  33  89 S3        30.02S
PAYNESVILLE    CLEAR     40  35  82 CALM      30.04R
AITKIN         CLEAR     48  30  49 SE5       29.99F
PINE RIVER     CLOUDY    41  36  81 CALM      30.03F
BRAINERD       CLOUDY    45  31  58 W3        30.02R
STAPLES        PTCLDY    39  30  70 CALM      30.01R
LONG PRAIRIE   FAIR      36  32  87 CALM      30.01F HAZE
LITTLE FALLS   CLEAR     36  32  87 CALM      30.01F
LITCHFIELD     CLEAR     45  37  76 CALM      30.05R
BUFFALO        PTCLDY    46  29  50 CALM      30.06R
MAPLE LAKE     CLEAR     45  34  65 CALM      30.05R
HUTCHINSON     CLEAR     43  33  70 CALM      30.06R
$$
MNZ037-044-045-052-053-051300-
   East Central Minnesota

CITY           SKY/WX    TMP DP  RH WIND       PRES   REMARKS
PRINCETON        N/A     46  30  53 CALM      30.05R
MORA           CLOUDY    39  32  75 CALM      30.07R
CAMBRIDGE      CLOUDY    46  32  57 CALM      30.04R
RUSH CITY      PTSUNNY   40  35  80 CALM      30.06S
MOOSE LAKE     CLOUDY    37  36  93 SW5       30.01S
HINCKLEY       CLOUDY    39  37  93 SW3       30.04F
CLOQUET        CLOUDY    41  34  75 SW7       30.00F
MCGREGOR       SUNNY     45  30  57 S7        30.02F
$$
MNZ071>073-080-081-089-090-097-098-051300-
   Southwest Minnesota

CITY           SKY/WX    TMP DP  RH WIND       PRES   REMARKS
MONTEVIDEO     CLEAR     45  36  70 SW5       30.02S
GRANITE FALLS  CLEAR     42  33  71 CALM      30.03R
CANBY          CLEAR     56  35  46 SW8       30.01S
MARSHALL       CLEAR     44  33  65 S5        30.02R
REDWOOD FALLS  CLEAR     41  31  67 S3        30.02R
OLIVIA         CLEAR     43  30  61 CALM      30.01S
PIPESTONE      CLEAR     45  32  61 CALM      30.04R
WINDOM         CLEAR     39  36  87 CALM      30.03S
WORTHINGTON    CLEAR     44  35  70 SW6       30.05R
JACKSON        CLEAR     43  34  70 SW3       30.04S
TRACY          CLEAR     48  36  61 SW10      30.02S
SLAYTON        CLEAR     47  30  52 SW7       30.04R
$$
MNZ065>067-074>077-082>085-091>093-051300-
   South Central Minnesota

CITY           SKY/WX    TMP DP  RH WIND       PRES   REMARKS
MANKATO        PTCLDY    45  28  53 S7        30.05R
NEW ULM        PTCLDY    39  32  75 S3        30.03R
ST JAMES       CLOUDY    37  30  75 CALM      30.04S
FAIRMONT       CLEAR     41  32  70 S6        30.04R
GLENCOE        CLEAR     46  32  58 SE3       30.04R
FARIBAULT      PTCLDY    37  32  81 S1        30.05R
OWATONNA       CLOUDY    37  30  75 CALM      30.05S
WASECA         MOCLDY    39  30  70 SE3       30.06S
ALBERT LEA     PTCLDY    37  32  81 CALM      30.06R
$$
MNZ078>079-086>088-094>096-051300-
   Southeast Minnesota

CITY           SKY/WX    TMP DP  RH WIND       PRES   REMARKS
ROCHESTER      PTSUNNY   42  32  67 CALM      30.05R
6HR MIN TEMP:  38; 6HR MAX TEMP:  47;

RED WING       CLOUDY    41  36  81 CALM      30.06R
STANTON        CLOUDY    39  32  75 CALM      30.05R
DODGE CENTER   PTCLDY    37  28  70 S3        30.04S
WINONA         SUNNY     37  34  87 CALM      30.06S
AUSTIN         CLOUDY    36  32  87 CALM      30.05R
PRESTON        SUNNY     40  27  59 CALM      30.06R
$$
ABBREVIATIONS USED IN REMARKS
   TC - TEMPERATURES IN CELSIUS
  WCI - WIND CHILL INDEX
   HX - HEAT INDEX
  VSB - VISIBILITY
$$




USA.gov is the U.S. government's official web portal to all federal, state and local government web resources and services.